San Jose, Costa Rica

5:24 PM CST on February 08, 2016 (GMT -0600)
Juan Santamaria International

Weather History for MROC - March, 2013

Change the Weather History Date:

Tuesday, March 19, 2013

  Actual Average Record
Temperature  
Mean Temperature 77 °F -  
Max Temperature 90 °F 83 °F - (-1)
Min Temperature 64 °F 65 °F - (-1)
Cooling Degree Days 12    
Growing Degree Days 27 (Base 50)    
Moisture  
Dew Point 64 °F    
Average Humidity 66    
Maximum Humidity 100    
Minimum Humidity 30    
Precipitation  
Precipitation 0.00 in 0.07 in - ()
Sea Level Pressure  
Sea Level Pressure 29.96 in    
Wind  
Wind Speed 6 mph ()    
Max Wind Speed 17 mph    
Max Gust Speed -    
Visibility 8.2 miles    
Events      
Averages and records for this station are not official NWS values.
T = Trace of Precipitation, MM = Missing Value Source: Averaged Metar Reports

Daily Weather History Graph

Daily Weather History Graph

Search for Another Location

Airport or City:

Trip Planner

Search our weather history database for the weather conditions in past years. The results will help you decide how hot, cold, wet, or windy it might be!

Date:

Astronomy

Mar. 19, 2013 Rise Set
Actual Time 5:41 AM CST 5:47 PM CST
Civil Twilight 5:20 AM CST 6:08 PM CST
Nautical Twilight 4:56 AM CST 6:33 PM CST
Astronomical Twilight 4:31 AM CST 6:57 PM CST
Moon 11:29 AM CST (3/19) No Moon Set
Length of Visible Light 12h 48m
Length of Day
12h 06m
Waxing Crescent, 50% of the Moon is Illuminated
Mar 19
Waxing Crescent
Mar 27
Full
Apr 2
Last Quarter
Apr 10
New
Apr 18
First Quarter

Hourly Weather History & Observations

Time (CST) Temp. Heat Index Dew Point Humidity Pressure Visibility Wind Dir Wind Speed Gust Speed Precip Events Conditions
12:00 AM 70 °F - 59 °F 60% 29.81 in 12 mi ENE 3.5 mph - -  
12:00 AM 69.8 °F - 62.6 °F 78% 30.02 in - ENE 3.5 mph - N/A   Clear
1:00 AM 69.8 °F - 60.8 °F 73% 30.01 in - ENE 3.5 mph - N/A   Clear
2:00 AM 66.2 °F - 59.0 °F 78% 30.00 in 6.2 mi NNE 5.8 mph - N/A   Partly Cloudy
3:00 AM 64 °F - 59 °F 79% 29.83 in 12 mi ENE 5.8 mph - -   Scattered Clouds
3:00 AM - - - N/A% 30.00 in 6.2 mi ENE 5.8 mph - N/A   Partly Cloudy
4:00 AM 66.2 °F - 60.8 °F 83% 29.99 in 6.2 mi ENE 9.2 mph - N/A   Partly Cloudy
5:00 AM 68.0 °F - 60.8 °F 78% 29.99 in - ENE 8.1 mph - N/A   Clear
6:00 AM 68 °F - 59 °F 65% 29.84 in 12 mi ESE 4.6 mph - -   Clear
6:00 AM 68.0 °F - 59.0 °F 73% 30.01 in - ESE 4.6 mph - N/A   Clear
7:00 AM 71.6 °F - 60.8 °F 69% 30.04 in - East 10.4 mph - N/A   Clear
8:00 AM 77.0 °F - 62.6 °F 61% 30.05 in - ESE 9.2 mph - N/A   Clear
9:00 AM 81 °F - 61 °F 40% 29.85 in 12 mi ESE 10.4 mph - -   Clear
9:00 AM 80.6 °F 81.5 °F 60.8 °F 51% 30.05 in - ESE 10.4 mph - N/A   Clear
10:00 AM 84.2 °F 84.4 °F 60.8 °F 45% 30.03 in - ESE 10.4 mph - N/A   Clear
11:00 AM 86.0 °F 86.1 °F 60.8 °F 43% 30.02 in - East 11.5 mph - N/A   Clear
12:00 PM 88 °F - 61 °F 30% 29.81 in 12 mi SSE 6.9 mph - -   Scattered Clouds
12:00 PM 87.8 °F 87.6 °F 60.8 °F 40% 30.00 in 6.2 mi SSE 6.9 mph - N/A   Partly Cloudy
12:10 PM 86.0 °F 86.6 °F 62.6 °F 45% 30.00 in 6.2 mi SW 9.2 mph - N/A   Partly Cloudy
1:00 PM 86.0 °F 87.3 °F 64.4 °F 48% 29.98 in 6.2 mi SW 9.2 mph - N/A   Scattered Clouds
2:00 PM 86.0 °F 88.2 °F 66.2 °F 51% 29.96 in 6.2 mi SW 9.2 mph - N/A   Scattered Clouds
3:00 PM 84 °F - 66 °F 46% 29.79 in 12 mi WSW 17.3 mph - -   Partly Cloudy
3:00 PM 84.2 °F 86.6 °F 66.2 °F 55% 29.94 in 6.2 mi WSW 17.3 mph - N/A   Scattered Clouds
4:00 PM 82.4 °F 85.4 °F 68.0 °F 62% 29.94 in 6.2 mi WSW 11.5 mph - N/A   Scattered Clouds
5:00 PM 78.8 °F - 68.0 °F 69% 29.95 in 6.2 mi WSW 12.7 mph - N/A   Scattered Clouds
6:00 PM 75 °F - 68 °F 73% 29.80 in 12 mi WSW 9.2 mph - -   Mostly Cloudy
6:00 PM 75.2 °F - 68.0 °F 78% 29.97 in 6.2 mi WSW 9.2 mph - N/A   Mostly Cloudy
7:00 PM 73.4 °F - 69.8 °F 88% 29.99 in 6.2 mi West 6.9 mph - N/A   Mostly Cloudy
8:00 PM 73.4 °F - 69.8 °F 88% 30.02 in 6.2 mi WSW 2.3 mph - N/A   Mostly Cloudy
9:00 PM 72 °F - 70 °F 91% 29.84 in 12 mi SSE 2.3 mph - -   Mostly Cloudy
9:00 PM 71.6 °F - 69.8 °F 94% 30.03 in 6.2 mi SSE 2.3 mph - N/A   Mostly Cloudy
10:00 PM 69.8 °F - 69.8 °F 100% 30.04 in 6.2 mi Calm Calm - N/A   Partly Cloudy
11:00 PM 71.6 °F - 62.6 °F 73% 30.04 in - East 6.9 mph - N/A   Clear